Location: Spring Creek
(38.2870°N, 100.2160°W)
Time: 11:40:18
(UTC+00:00)

Okean 1 Rocket - Pass Details

Date: 08 May 2021
Orbit: 605 x 635 km, 82.5° (Epoch: 22 June)

Event Time Altitude Azimuth Distance (km) Brightness Sun altitude
Rises 08:58:58 0° 344° (NNW) 2,905 7.0 -25.3°
Reaches altitude 10° 09:01:19 10° 336° (NNW) 1,989 6.0 -25.1°
Enters shadow 09:03:51 29° 312° (NW) 1,149 4.4 -24.7°
